Location: St Paul
(33.9360°N, 83.4200°W)
Time: 21:25:17
(UTC-05:00)

Okean 3 Rocket - Pass Details

Date: 06 October 2017
Orbit: 616 x 645 km, 82.5° (Epoch: 09 December)

Event Time Altitude Azimuth Distance (km) Brightness Sun altitude
Rises 19:59:04 0° 357° (N) 2,907 7.1 -10.8°
Reaches altitude 10° 20:01:20 10° 1° (N) 1,993 6.2 -11.3°
Maximum altitude 20:05:42 62° 82° (E) 694 3.5 -12.2°
Drops below altitude 10° 20:10:01 10° 164° (SSE) 1,969 6.0 -13.1°
Sets 20:12:15 0° 167° (SSE) 2,869 6.8 -13.6°
